Погода в Ключах

Россия / Саратовская область     51°26′11″N   45°11′21″E
темп.,
°C
ветер,
м/с
пор.,
м/с
влажн.,
%
обл.,
%
осадки,
мм/ч
давл.,
гПа
погр.,
м
10 мая, пн
пн1001:00+10ссз5696100 2.3 1011276
04:00+10с5798100 4.4 1011247
07:00+11с4698100 2.4 1011232
10:00+14св71184100 2.4 1010441
13:00+19в71155100 0.0 10101179
16:00+21в7165099 0.0 10102599
19:00+14вюв41183100 0.7 1014571
22:00+13в3889100 0.9 1014274
11 мая, вт
вт1101:00+12вюв21296100 0.1 1014557
04:00+9ююв4794100 1.2 1017369
07:00+8ююв5792100 4.1 1020611
10:00+11ююв56625 4.1 10221067
13:00+14юв795412 0.0 10241494
16:00+15юв56503 0.0 10251441
19:00+15вюв23588 0.0 1025270
22:00+11ссз1164100 0.0 102511
12 мая, ср
ср1201:00+12св41068100 0.0 1025323
04:00+10св4994100 1.1 1023428
07:00+12в8159470 1.6 1021762
10:00+14вюв8138196 1.8 1021786
13:00+18юв7106764 0.0 10211192
16:00+18вюв786523 0.1 10221075
19:00+17вюв6107296 0.0 1022553
22:00+16в51274100 0.0 1022402
13 мая, чт
чт1301:00+15всв61471100 0.0 1021429
04:00+15в71563100 0.0 1020448
07:00+15вюв61368100 0.0 1020466
10:00+16вюв61067100 0.3 1021407
13:00+21юв81056100 0.0 1021987
16:00+23юв7115352 0.0 10201858
19:00+21вюв6126082 0.0 1020388
22:00+18вюв6155982 0.0 1021386
14 мая, пт
пт1401:00+16вюв6146435 0.0 1021281
04:00+14вюв412687 0.0 1021179
07:00+15вюв511675 0.0 1022214
10:00+20вюв695052 0.0 1021355
13:00+24юв7104080 0.0 1021759
16:00+26юв71140100 0.0 10201367
19:00+23юв512528 0.0 1020319
22:00+18юв616525 0.0 1020296